Wind_Speed
23 20 26 27 23 18 14 18 18 17 13 11 15 14 8 12 17 18 19 20 22 23 24 30 30 29 28 27 28 28 27 26 25 24 22 21 20 19 17 16 14 13 12 11
18 28 24 23 21 20 20 17 20 16 10 8 12 12 9 12 16 17 20 21 22 21 21 25 30 31 32 31 30 29 29 27 27 24 23 21 20 19 18 17 15 14 14 13
24 16 23 24 22 23 24 24 20 16 9 12 14 15 15 11 13 15 18 19 20 22 22 23 28 33 32 33 33 32 30 29 27 25 22 19 17 17 19 20 18 15 13 13
27 18 24 24 25 24 25 23 19 17 15 15 16 14 18 19 17 16 18 20 20 23 23 22 26 31 34 34 33 32 31 30 28 27 24 24 23 22 21 22 19 16 15 14
22 26 23 28 28 25 22 18 16 21 17 17 20 11 17 14 16 18 19 20 22 23 24 25 25 35 36 32 32 31 30 31 29 29 28 26 24 23 19 20 19 20 17 17
27 14 24 23 19 22 17 16 15 16 16 19 23 20 18 18 18 18 18 18 21 23 25 25 31 31 33 33 32 31 31 31 31 31 31 28 26 24 22 20 20 20 21 19
26 28 19 17 23 19 23 18 10 14 17 20 20 20 19 9 20 20 17 18 20 23 23 24 24 25 33 35 35 33 31 32 33 34 33 33 32 28 25 22 22 18 19 19
21 21 29 24 27 20 28 24 12 18 15 17 18 18 21 24 21 10 18 18 18 21 22 24 26 30 34 38 39 37 36 35 36 36 35 35 34 32 30 27 25 22 21 19
22 26 30 21 22 25 24 25 26 11 6 9 16 20 16 10 18 22 23 17 18 21 22 25 26 33 35 36 38 39 37 37 36 37 36 36 35 35 33 31 29 27 22 20
17 17 19 25 26 25 20 24 21 15 17 17 14 19 13 22 22 19 21 21 18 21 23 22 22 29 37 39 41 42 43 42 42 39 37 36 36 36 36 32 31 29 27 26
15 15 23 23 26 27 22 18 23 18 16 14 12 14 16 19 17 21 21 20 19 19 20 20 21 28 33 34 36 39 40 40 39 40 40 38 37 36 35 35 35 34 30 28
16 10 12 26 23 25 29 24 28 13 23 19 13 8 5 9 17 18 18 19 18 17 16 16 18 20 26 32 34 38 39 40 40 39 38 39 38 37 37 37 36 34 33 32
5 14 15 15 20 21 30 29 25 26 15 21 17 5 10 9 3 3 8 7 7 10 8 10 12 16 18 27 32 35 37 41 41 38 39 38 38 38 38 37 38 37 36 35
6 11 22 19 18 19 26 29 28 27 20 18 18 15 12 4 11 5 5 4 4 8 9 10 12 15 17 23 26 31 35 37 37 38 40 39 40 41 39 39 39 39 39 37
6 14 7 16 4 6 14 28 30 30 27 25 20 21 17 8 8 7 7 10 10 6 5 7 11 12 13 18 23 28 33 33 35 35 38 39 41 38 37 38 39 38 36 38
6 3 5 14 10 8 11 13 15 23 30 27 26 23 11 6 7 16 14 14 14 16 17 14 11 12 12 17 22 26 30 33 34 32 38 35 35 36 38 37 37 37 38 38
6 5 6 15 11 10 15 21 21 19 19 18 23 16 16 18 14 15 15 15 14 14 16 14 12 13 12 16 20 23 29 28 32 35 33 34 34 36 36 35 35 38 39 38
7 7 8 7 7 16 13 8 22 23 20 20 18 16 14 14 15 17 17 17 19 20 20 15 14 15 14 18 19 22 22 28 31 32 33 35 35 34 32 34 38 38 37 38
12 8 7 11 13 9 5 4 8 11 18 18 18 12 15 18 19 20 19 19 19 19 19 18 21 21 18 19 21 20 23 26 29 32 35 35 33 31 31 34 35 31 31 32
14 12 9 8 16 18 4 20 2 2 9 9 4 7 4 7 13 13 15 18 17 16 15 15 23 22 21 20 16 16 21 25 29 33 33 30 31 31 33 32 31 30 30 32
13 11 15 14 14 9 10 9 2 12 5 7 0 3 5 7 8 16 22 22 18 17 17 20 20 19 20 17 17 19 20 26 27 25 26 28 30 31 31 29 31 32 33 32
10 11 12 15 18 24 10 11 13 8 11 9 11 12 12 14 14 15 17 21 20 20 21 21 14 16 15 14 17 18 19 20 20 22 24 25 26 27 27 28 29 30 29 31
14 13 11 12 12 10 9 10 12 15 16 17 18 17 16 18 20 18 18 20 19 18 14 13 13 12 11 12 16 16 16 18 19 21 21 22 23 26 24 27 28 28 30 30
18 17 14 17 20 24 22 18 21 18 20 20 20 22 20 21 21 23 19 17 15 11 9 11 7 8 6 6 10 13 15 17 18 18 18 20 21 22 23 24 26 27 29 30
13 13 17 21 22 23 23 20 21 24 22 25 24 24 21 21 24 23 19 14 12 7 9 5 5 6 7 8 8 9 10 12 14 14 15 16 17 21 20 23 25 28 30 31
18 24 18 20 20 18 19 17 20 24 25 21 20 22 23 20 19 18 16 10 6 7 7 7 8 7 7 9 9 9 8 7 8 9 10 11 12 14 17 18 21 25 27 27
Wind_Direction
188 199 208 206 216 227 241 226 227 223 223 254 251 251 251 184 196 194 189 194 196 199 192 195 198 199 201 201 200 202 201 201 199 200 202 207 210 210 214 217 218 225 231 231
184 215 211 216 213 223 228 228 229 239 212 254 257 248 239 189 203 199 196 199 203 198 190 194 198 200 201 202 202 203 204 202 203 204 205 208 210 212 216 217 222 229 230 225
201 212 213 207 211 214 224 224 227 236 191 228 259 255 244 209 204 206 205 209 200 202 195 192 196 201 201 204 204 204 204 203 204 205 203 204 208 216 216 216 221 227 216 213
219 197 199 208 214 207 222 217 242 246 239 248 212 258 225 217 202 212 210 202 208 205 199 195 197 199 203 205 204 206 206 204 204 202 201 201 205 208 213 214 218 219 214 213
205 212 202 210 212 213 235 228 214 235 241 247 246 246 256 199 219 213 215 207 208 199 202 197 199 201 204 201 203 205 206 205 204 204 205 201 210 213 211 216 219 217 217 217
225 207 213 220 212 221 219 233 223 232 233 239 236 238 243 232 218 222 210 209 205 207 202 200 202 202 203 203 204 203 203 206 204 204 207 207 207 213 211 212 215 218 220 220
213 222 217 208 214 208 199 198 194 213 220 234 227 234 233 234 221 214 224 207 206 199 206 201 198 199 202 202 204 205 204 206 206 208 209 212 214 212 215 211 215 217 219 220
207 217 203 199 208 196 197 205 212 211 214 224 214 234 234 229 239 251 226 241 196 198 205 204 200 200 201 203 201 202 201 204 204 207 209 211 212 216 220 220 222 220 222 220
199 225 186 200 199 202 193 214 217 250 218 264 220 216 247 247 226 220 229 225 209 194 201 205 204 203 202 204 202 203 202 204 207 209 208 210 212 214 218 221 217 222 220 219
256 221 184 195 198 213 206 202 215 229 237 231 226 232 224 211 213 220 215 215 205 198 200 203 204 206 207 206 206 204 203 202 204 206 210 214 214 214 215 215 216 217 218 216
243 235 188 184 202 195 200 202 214 222 229 217 233 234 212 229 210 213 208 211 208 203 202 200 204 207 209 211 208 210 209 208 205 206 207 208 212 214 216 215 215 214 215 213
220 232 218 204 199 213 202 204 201 215 213 239 279 249 119 212 215 215 217 211 217 209 213 209 207 205 206 208 210 211 212 211 211 209 207 208 209 209 212 213 214 213 213 212
167 222 210 200 203 204 216 205 211 217 234 212 220 196 128 100 214 159 217 235 250 258 246 238 220 209 208 208 209 212 212 213 211 208 209 210 211 210 211 210 211 210 210 211
255 243 224 217 210 197 215 207 214 211 222 227 210 233 165 203 160 146 144 159 184 197 222 227 225 218 215 212 208 210 212 214 213 210 211 210 210 209 208 209 210 210 209 208
323 222 232 249 305 287 233 214 210 216 224 227 227 213 238 214 235 239 277 300 294 264 226 236 227 222 219 215 215 210 214 212 212 210 211 211 212 210 209 208 210 209 208 210
334 206 239 243 223 234 236 236 240 232 228 232 241 248 239 204 291 271 279 281 280 285 280 277 257 226 215 216 214 213 213 214 208 210 212 213 210 209 211 209 207 207 208 209
290 293 240 227 206 253 243 225 220 225 233 236 236 243 251 259 254 253 264 275 275 273 274 272 255 229 232 219 217 217 213 209 208 212 210 212 210 210 210 208 207 209 209 209
272 244 258 254 174 235 246 215 217 225 231 227 246 255 259 250 250 255 260 265 269 267 268 263 252 242 230 242 237 230 220 209 207 208 210 208 210 210 207 205 209 211 210 212
219 256 246 237 226 275 182 174 217 218 230 230 242 252 255 245 246 251 257 258 259 260 263 269 269 271 269 256 247 243 216 209 208 208 208 209 207 208 208 210 213 215 213 215
207 221 243 223 238 232 268 214 194 256 246 243 207 237 289 296 246 249 247 249 280 265 270 274 272 270 261 248 232 212 214 210 210 210 208 206 205 206 208 210 209 211 215 219
198 211 222 227 248 246 267 89 53 199 74 67 214 343 329 298 314 314 309 304 298 296 295 287 277 258 249 243 225 218 213 215 216 212 210 207 206 206 208 207 205 205 207 214
208 203 216 233 242 239 256 287 235 344 320 310 322 317 310 306 303 299 301 297 290 282 277 275 267 248 236 230 220 207 208 211 204 205 206 205 205 207 209 208 208 209 210 211
244 257 261 226 235 270 295 279 310 316 305 301 306 305 311 304 306 308 303 293 284 276 267 261 247 234 222 219 210 198 202 194 193 197 199 204 204 203 207 201 209 211 211 217
256 274 272 268 259 267 274 285 282 289 294 302 302 295 301 301 305 308 305 292 269 260 259 244 228 220 193 186 187 182 174 182 188 193 198 198 197 199 201 203 209 216 216 216
266 270 256 263 256 261 262 262 280 275 275 283 288 290 290 298 300 302 294 280 257 226 226 209 185 159 125 121 127 140 159 173 183 189 194 197 200 198 202 211 212 218 223 223
257 258 250 255 260 266 265 266 263 264 269 282 278 287 282 286 290 283 276 265 215 186 172 159 141 127 112 109 99 87 89 128 152 172 186 196 207 203 214 218 230 235 237 231
Height
734 745 738 732 732 730 726 733 738 726 718 729 730 727 720 722 728 733 740 746 750 754 761 771 779 786 793 799 805 810 814 819 823 827 830 833 835 837 840 842 843 845 847 849
737 732 722 724 726 735 737 743 736 723 717 730 726 727 714 718 724 725 731 737 741 748 755 764 772 778 784 791 798 804 809 814 818 822 825 829 832 834 837 838 840 842 844 846
718 714 714 722 729 739 738 738 735 735 725 723 729 733 724 715 716 718 720 725 732 739 747 755 764 770 777 784 790 796 803 808 813 817 822 826 829 832 833 834 836 839 841 843
710 699 713 720 727 728 736 725 730 732 738 752 717 749 715 708 716 716 715 719 722 732 737 746 755 762 768 775 784 790 797 802 808 813 816 819 822 823 826 829 832 835 838 841
704 704 710 717 714 716 724 711 727 733 738 739 730 741 719 700 715 710 707 708 715 718 726 734 743 751 759 769 776 784 791 796 801 806 809 813 817 819 822 825 828 832 835 837
692 683 692 698 703 706 710 722 725 731 734 747 725 727 718 705 707 700 696 699 705 711 716 724 734 746 755 763 770 776 783 789 795 799 804 807 809 813 816 820 823 827 830 832
695 689 688 687 706 703 712 725 743 751 742 737 708 720 710 686 680 688 689 689 695 703 709 716 726 736 745 753 761 769 775 780 786 791 796 800 804 808 812 815 819 821 824 826
701 706 684 675 689 701 709 710 716 745 728 724 706 716 695 676 676 676 678 677 681 694 701 707 715 724 733 741 749 757 763 770 776 782 786 791 797 802 806 810 812 816 817 820
679 681 660 668 675 680 701 708 686 697 695 709 688 689 678 670 671 672 675 672 675 683 691 697 703 713 722 731 739 745 752 759 766 772 777 782 788 793 797 801 805 809 812 814
662 679 658 669 671 670 675 683 712 697 731 733 701 697 692 675 678 670 671 668 668 671 680 687 695 701 709 718 725 734 740 744 750 760 767 773 778 783 788 793 797 801 805 809
669 663 661 661 668 673 682 686 687 685 690 707 712 687 652 663 663 667 663 661 660 665 670 676 682 691 699 709 718 724 731 736 742 748 753 760 766 773 778 783 787 792 798 802
671 664 666 662 651 650 660 673 677 694 707 693 686 677 645 649 651 655 656 656 655 657 663 668 673 682 690 698 705 711 718 725 732 737 745 749 755 762 767 772 778 784 789 794
676 671 677 668 659 653 656 658 663 671 669 689 702 686 650 653 657 658 660 659 659 658 664 666 668 673 679 686 695 701 707 711 719 727 734 741 745 750 755 761 767 772 777 783
698 668 662 659 657 651 666 655 658 666 676 676 677 672 662 661 663 660 659 658 660 664 665 665 667 668 671 677 683 690 696 703 709 715 721 726 732 736 743 750 756 761 766 772
690 680 681 663 671 672 652 653 653 660 662 671 666 668 662 658 659 658 657 659 661 661 662 663 664 665 669 672 677 683 689 694 699 705 710 714 719 727 734 739 744 752 758 763
698 691 690 687 678 679 678 667 658 653 651 658 659 662 644 649 652 655 659 662 662 659 657 655 658 660 663 666 670 675 680 684 691 695 699 706 712 718 723 730 736 743 747 752
713 697 698 685 673 680 686 668 666 664 657 660 669 664 655 658 660 661 659 657 656 655 652 652 653 654 656 659 663 666 670 679 682 686 692 699 704 708 714 722 728 732 736 742
717 711 699 685 683 702 651 638 647 659 656 656 659 658 655 657 656 655 651 651 649 646 643 644 645 645 649 653 654 657 664 668 672 678 684 688 693 699 707 714 716 721 726 731
715 713 702 701 690 664 654 657 661 664 660 649 653 652 650 649 651 652 646 641 640 640 638 636 637 639 643 646 649 652 655 660 666 668 672 677 685 695 701 704 708 717 722 726
707 715 711 695 700 688 659 643 651 655 677 647 656 657 656 652 659 648 636 634 633 632 635 636 635 634 635 639 642 644 647 652 655 656 663 672 678 684 689 694 701 707 713 717
708 712 712 704 697 674 653 657 660 684 673 652 656 658 660 662 656 650 644 643 641 639 636 634 632 633 631 633 634 635 639 642 647 655 660 665 669 675 681 687 691 694 698 703
700 707 701 703 696 692 661 662 676 659 658 658 661 661 662 658 656 653 650 644 641 636 632 627 628 626 627 629 631 630 633 637 644 649 654 659 664 670 675 679 683 687 691 694
709 698 687 686 679 669 667 668 666 669 669 668 662 658 656 654 649 650 647 642 635 629 625 624 624 625 625 626 627 627 630 635 640 644 648 654 659 662 666 671 677 681 683 683
700 695 694 694 683 679 676 674 671 672 670 664 661 655 655 651 648 644 642 634 627 623 624 623 623 625 625 625 626 626 629 633 637 641 645 649 652 656 659 663 668 670 670 671
696 690 689 684 679 680 676 675 674 674 673 666 662 656 653 651 645 644 639 629 625 624 626 626 627 629 629 629 631 631 631 634 637 640 642 645 647 651 653 655 657 659 659 660
698 692 686 674 675 674 673 671 671 667 662 663 659 656 651 650 648 646 636 628 627 630 632 632 633 634 634 634 635 635 635 635 636 638 640 641 643 646 649 650 654 654 655 657